www.pogodaiklimat.ru

Погода и климат >> Архив погоды >> Япония >> Ундзэн


ПОГОДА на Ундзэне

  • Прогноз погоды на Ундзэне
  • Монитор погоды на Ундзэне

АРХИВ ПОГОДЫ на Ундзэне

Время (UTC), дата Ветер
(напр.,м/с)
 
Видим.   Явления Облачность Т
(С)
Тd
(С)
f
(%)
Тe
(С)
Тes
(С)
Комфортность P
(гПа)
Po
(гПа)
Тmin
(С)
Tmax
(С)
R
(мм)
R24
(мм)
S
(см)
22 10.06 0 20 км н/о +15.5 +11.3 76 1006.0 929.2
23 10.06 0 20 км н/о +17.3 +11.6 69 1006.2 929.9
00 11.06 0 20 км н/о +18.9 +12.9 68 1005.9 930.1 +12.2
01 11.06 0 20 км н/о +20.4 +10.5 53 1005.5 930.1
02 11.06 0 20 км н/о +18.4 +15.3 82 1006.0 930.0
03 11.06 0 20 км н/о +19.4 +14.9 75 1005.7 930.0
04 11.06 0 20 км н/о +19.4 +13.8 70 1005.4 929.7
05 11.06 0 20 км н/о +21.9 +11.9 53 1004.2 929.3
06 11.06 0 20 км н/о +22.1 +12.9 56 1004.1 929.3
07 11.06 0 20 км н/о +19.7 +13.9 69 1004.7 929.2
08 11.06 0 20 км н/о +20.4 +13.6 65 1004.3 929.0
09 11.06 0 20 км н/о +18.7 +12.7 68 1005.1 929.3
10 11.06 0 20 км н/о +17.4 +12.3 72 1005.8 929.5
11 11.06 0 20 км н/о +16.2 +12.2 77 1006.7 930.0
12 11.06 0 20 км н/о +15.1 +13.0 87 1007.3 930.3 +22.8
13 11.06 0 18 км н/о +14.2 +13.3 94 1008.3 930.9
14 11.06 0 19 км н/о +13.9 +13.0 94 1008.3 930.9
15 11.06 0 20 км н/о +13.3 +12.0 92 1008.3 930.7
16 11.06 0 20 км н/о +15.5 +10.9 74 1007.4 930.5
17 11.06 0 20 км н/о +15.0 +10.4 74 1007.7 930.6
18 11.06 0 20 км н/о +14.6 +10.0 74 1007.9 930.7
19 11.06 0 20 км н/о +12.8 +10.7 87 1008.5 930.7
20 11.06 0 20 км н/о +14.2 +10.8 80 1008.1 930.8
21 11.06 0 20 км н/о +14.0 +11.9 87 1008.9 931.4
23 11.06 0 20 км н/о +16.3 +11.5 73 1008.9 932.1
00 12.06 0 20 км н/о +17.7 +11.3 66 1008.5 932.1 +12.2
01 12.06 0 20 км н/о +19.0 +11.8 63 1008.4 932.4
02 12.06 0 20 км н/о +20.4 +13.1 63 1008.0 932.4
03 12.06 0 20 км н/о +21.1 +13.6 62 1008.0 932.6
04 12.06 0 20 км н/о +21.7 +14.1 62 1007.2 932.1
05 12.06 0 20 км н/о +22.7 +13.5 56 1006.5 931.7
06 12.06 0 20 км н/о +22.4 +14.0 59 1006.5 931.6
07 12.06 0 20 км н/о +20.7 +13.7 64 1006.9 931.5
08 12.06 0 20 км н/о +20.2 +14.1 68 1006.9 931.4
09 12.06 0 20 км н/о +19.9 +14.7 72 1007.1 931.5
10 12.06 0 20 км н/о +18.4 +14.5 78 1008.4 932.2
11 12.06 0 20 км н/о +16.8 +14.1 84 1009.5 932.8
12 12.06 0 20 км н/о +16.0 +14.4 90 1010.0 933.0 +23.7
13 12.06 0 20 км н/о +15.2 +13.6 90 1010.5 933.3
14 12.06 0 20 км н/о +14.6 +13.7 94 1010.5 933.1
15 12.06 0 18 км н/о +14.7 +13.9 95 1010.4 933.0
16 12.06 0 17 км н/о +14.3 +13.7 96 1010.5 933.0
17 12.06 0 15 км н/о +14.3 +13.8 97 1010.3 932.8
18 12.06 0 10 км н/о +15.0 +14.5 97 1010.3 933.0
19 12.06 0 8000 м дымка н/о +15.4 +14.9 97 1010.2 933.0
20 12.06 0 6000 м дымка н/о +14.1 +13.8 98 1010.9 933.3
21 12.06 0 4700 м дымка н/о +14.4 +14.3 99 1011.0 933.5
22 12.06 0 8000 м дымка н/о +16.2 +15.4 95 1010.8 933.8
23 12.06 0 15 км н/о +19.1 +14.8 76 1010.2 934.1
00 13.06 0 17 км н/о +20.1 +14.0 68 1009.8 934.0 +13.6
01 13.06 0 20 км н/о +21.3 +14.0 63 1009.5 934.1
02 13.06 0 20 км н/о +21.7 +13.9 61 1009.3 934.0
03 13.06 0 20 км н/о +22.3 +13.9 59 1009.1 934.0
04 13.06 Ю 2 20 км н/о +23.9 +13.2 51 +26 +26 жарко 1008.7 934.0
05 13.06 Ю 2 20 км н/о +24.3 +13.5 51 +27 +27 жарко 1007.8 933.3
07 13.06 Ю 2 20 км н/о +23.0 +14.0 57 +26 +26 жарко 1007.2 932.4
08 13.06 ЮЗ 2 20 км н/о +22.8 +14.9 61 +27 +27 душно 1007.1 932.3
09 13.06 З 2 20 км н/о +21.4 +15.0 67 +25 +25 комфорт 1007.8 932.5
10 13.06 З 4 20 км н/о +20.4 +13.1 63 +23 +23 комфорт 1008.7 933.1
11 13.06 З 4 20 км н/о +19.5 +13.9 70 +21 +21 комфорт 1009.5 933.6
12 13.06 З 2 20 км н/о +19.4 +14.7 74 +22 +22 комфорт 1009.6 933.6 +25.3
13 13.06 Ю 3 20 км н/о +19.1 +15.2 78 +21 +21 комфорт 1010.0 933.9
14 13.06 ЮВ 3 20 км н/о +18.3 +15.4 83 +19 +19 1009.8 933.5
15 13.06 В 4 20 км н/о +17.9 +14.6 81 +18 +18 1009.2 932.8
16 13.06 В 3 20 км н/о +19.2 +15.1 77 +21 +21 комфорт 1008.3 932.4
17 13.06 В 3 20 км н/о +18.3 +14.6 79 +19 +19 1007.9 931.7
18 13.06 В 2 20 км н/о +17.0 +14.3 84 +17 +17 1007.6 931.1
19 13.06 В 2 20 км н/о +17.6 +13.7 78 +18 +18 1006.6 930.3
20 13.06 В 4 20 км н/о +17.5 +13.8 79 +17 +17 1006.8 930.5
21 13.06 В 3 20 км н/о +17.4 +13.7 79 +18 +18 1007.1 930.7
22 13.06 В 2 20 км н/о +18.9 +13.1 69 +20 +20 1005.7 929.9
23 13.06 В 3 20 км н/о +18.4 +13.1 71 +19 +19 1005.2 929.3
00 14.06 В 3 11 км слаб. дождь н/о +17.6 +15.8 89 +18 +18 1006.2 930.0 +16.6 0.0
02 14.06 В 5 15 км слаб. дождь н/о +17.6 +14.1 80 +17 +17 1004.6 928.5
03 14.06 В 5 20 км слаб. дождь н/о +18.7 +15.8 83 +19 +19 1003.7 928.0
04 14.06 В 3 17 км в посл. час дождь н/о +19.4 +16.8 85 +22 +22 комфорт 1002.5 927.1
05 14.06 В 3 6000 м слаб. дождь н/о +19.1 +17.3 89 +21 +21 комфорт 1001.7 926.2
06 14.06 В 4 4700 м слаб. дождь н/о +17.6 +17.0 96 +17 +17 1001.7 925.8 2
07 14.06 В 4 16 км слаб. дождь н/о +18.7 +16.7 88 +20 +20 1000.3 924.8
08 14.06 В 4 18 км слаб. дождь н/о +18.9 +16.0 83 +20 +20 999.5 924.1
09 14.06 В 2 13 км слаб. дождь н/о +17.7 +16.4 92 +18 +18 999.2 923.5
10 14.06 В 4 20 км слаб. дождь н/о +17.2 +16.6 96 +17 +17 999.1 923.3
11 14.06 СВ 5 16 км слаб. дождь н/о +17.4 +16.6 95 +17 +17 998.4 922.7
12 14.06 СВ 4 8000 м в посл. час дождь н/о +17.2 +16.7 97 +17 +17 998.2 922.5 +19.7 3
13 14.06 В 4 12 км слаб. дождь н/о +17.6 +16.8 95 +17 +17 998.1 922.5
14 14.06 В 4 20 км слаб. дождь н/о +17.3 +16.8 97 +17 +17 997.0 921.4
15 14.06 В 6 7000 м слаб. дождь н/о +17.7 +17.2 97 +17 +17 995.8 920.4
16 14.06 В 2 20 км слаб. дождь н/о +17.4 +17.3 99 +18 +18 994.5 919.1
17 14.06 С 5 600 м туман н/о +16.9 +16.9 100 +16 +16 994.8 919.2
18 14.06 СВ 5 4800 м слаб. дождь {туман} н/о +16.8 +16.8 100 +16 +16 994.8 919.2 3
19 14.06 СЗ 4 5000 м слаб. дождь н/о +16.9 +16.9 100 +16 +16 995.3 919.7
20 14.06 С 8 3900 м дождь н/о +16.9 +16.8 99 +15 +15 994.4 918.9
21 14.06 С 5 19 км слаб. дождь н/о +16.6 +16.5 99 +16 +16 994.6 919.0
22 14.06 СВ 8 10 км слаб. дождь н/о +16.5 +16.4 99 +15 +15 994.0 918.4
23 14.06 С 8 1100 м слаб. дождь н/о +15.8 +15.8 100 +14 +14 994.7 918.8
00 15.06 СЗ 6 3900 м слаб. дождь н/о +15.9 +15.9 100 +14 +14 995.3 919.4 +15.7 10
01 15.06 СЗ 7 7000 м в посл. час дождь н/о +16.0 +16.0 100 +14 +14 995.1 919.3
02 15.06 СЗ 6 3500 м дождь н/о +16.4 +16.3 99 +15 +15 996.2 920.4
03 15.06 СЗ 7 2700 м дождь н/о +15.9 +15.9 100 +14 +14 996.9 920.9
04 15.06 З 8 5000 м дождь н/о +15.8 +15.8 100 +14 +14 997.4 921.3
05 15.06 З 6 4600 м слаб. дождь н/о +15.6 +15.6 100 +14 +14 997.5 921.4
06 15.06 СЗ 7 19 км в посл. час дождь н/о +16.9 +15.9 94 +16 +16 997.3 921.5 16
07 15.06 З 7 20 км н/о +16.6 +14.6 88 +15 +15 997.8 921.9
08 15.06 З 6 20 км н/о +17.9 +14.0 78 +17 +17 997.7 922.2
09 15.06 СЗ 3 20 км н/о +17.8 +14.1 79 +18 +18 998.7 923.1
10 15.06 СЗ 3 20 км н/о +16.5 +14.5 88 +16 +16 1000.3 924.2
11 15.06 З 5 7000 м дымка н/о +15.8 +15.2 96 +15 +15 1001.4 925.0
12 15.06 З 4 5000 м дымка н/о +15.7 +14.9 95 +15 +15 1001.4 925.0 +18.4 16
13 15.06 З 5 2500 м дымка н/о +15.8 +15.7 99 +15 +15 1001.9 925.5
14 15.06 З 6 1500 м в посл. час дождь н/о +15.9 +15.9 100 +15 +15 1002.6 926.2
15 15.06 З 6 1100 м в посл. час туман {дождь} н/о +15.7 +15.7 100 +14 +14 1002.8 926.3
16 15.06 З 5 400 м туман н/о +15.4 +15.4 100 +14 +14 1002.8 926.2
17 15.06 З 6 2200 м в посл. час туман н/о +15.2 +15.2 100 +13 +13 1002.9 926.2
18 15.06 З 7 3100 м в посл. час туман {дождь} н/о +15.0 +14.9 99 +13 +13 1003.1 926.4 0.0
19 15.06 СЗ 6 3700 м дымка н/о +14.9 +14.8 99 +13 +13 1003.4 926.6
20 15.06 З 7 2900 м дымка н/о +14.5 +14.5 100 +12 +12 1004.4 927.4
21 15.06 З 6 3200 м дымка н/о +14.3 +14.3 100 +12 +12 1004.9 927.8
22 15.06 СЗ 4 6000 м дымка н/о +15.1 +14.5 96 +14 +14 1005.4 928.5
23 15.06 СЗ 3 5000 м дымка н/о +15.1 +14.5 96 +14 +14 1005.9 929.0
00 16.06 СЗ 3 8000 м дымка н/о +16.1 +14.3 89 +16 +16 1006.0 929.4 +14.3 0.0
01 16.06 З 2 9000 м дымка н/о +17.0 +15.2 89 +17 +17 1006.3 929.9
02 16.06 З 3 10 км н/о +17.7 +15.2 85 +18 +18 1006.6 930.4
03 16.06 З 2 9000 м дымка н/о +17.6 +15.4 87 +18 +18 1007.2 930.9
04 16.06 З 2 12 км н/о +19.2 +16.1 82 +22 +22 комфорт 1006.6 930.8
05 16.06 З 3 13 км н/о +18.7 +15.4 81 +20 +20 1007.0 931.0
06 16.06 З 3 13 км н/о +19.1 +16.7 86 +21 +21 комфорт 1007.3 931.4
07 16.06 З 3 12 км н/о +18.6 +16.4 87 +20 +20 1008.0 931.9
08 16.06 З 2 13 км н/о +18.5 +15.8 84 +20 +20 1008.2 932.1
09 16.06 С 1 15 км н/о +18.7 +15.4 81 +21 +21 комфорт 1008.5 932.4
10 16.06 С 4 13 км н/о +17.6 +16.0 90 +17 +17 1009.5 933.0
11 16.06 С 4 20 км н/о +17.0 +14.5 85 +16 +16 1010.2 933.5
12 16.06 СВ 3 20 км н/о +16.8 +13.3 80 +17 +17 1010.8 934.0 +20.3
13 16.06 С 1 11 км н/о +14.5 +14.0 97 +16 +16 1012.3 934.7
14 16.06 З 2 11 км н/о +13.9 +13.4 97 +13 +13 1012.5 934.7
15 16.06 З 1 9000 м дымка н/о +13.6 +13.3 98 +14 +14 1012.6 934.7
16 16.06 З 3 7000 м дымка н/о +13.4 +13.4 100 +12 +12 1012.7 934.8
17 16.06 З 2 6000 м дымка н/о +13.8 +13.8 100 +13 +13 1012.5 934.7
18 16.06 СЗ 2 6000 м дымка н/о +13.4 +13.4 100 +13 +13 1012.9 935.0
19 16.06 СЗ 3 6000 м дымка н/о +13.4 +13.4 100 +12 +12 1012.9 935.0
20 16.06 СЗ 3 4300 м дымка н/о +13.1 +13.1 100 +12 +12 1013.1 935.1
21 16.06 СЗ 3 6000 м дымка н/о +13.9 +13.9 100 +13 +13 1013.1 935.3
22 16.06 СЗ 3 9000 м дымка н/о +15.7 +15.2 97 +15 +15 1013.2 935.9
23 16.06 СЗ 3 20 км н/о +18.0 +14.5 80 +18 +18 1013.2 936.5
00 17.06 С 2 20 км н/о +18.6 +14.5 77 +20 +20 1013.4 936.9 +12.9
01 17.06 З 2 16 км н/о +18.4 +15.8 85 +19 +19 1013.7 937.1
02 17.06 Ю 1 19 км н/о +19.2 +15.9 81 +22 +22 комфорт 1013.4 937.1
03 17.06 ЮЗ 1 18 км н/о +20.5 +16.7 79 +25 +25 комфорт 1012.8 936.9
05 17.06 З 2 20 км н/о +22.2 +14.3 61 +25 +25 комфорт 1011.6 936.3
06 17.06 З 3 20 км н/о +22.4 +13.5 57 +25 +25 комфорт 1011.6 936.3
07 17.06 З 3 20 км н/о +21.3 +14.5 65 +24 +24 комфорт 1011.7 936.1
08 17.06 З 3 20 км н/о +20.8 +13.5 63 +24 +24 комфорт 1011.5 935.8
09 17.06 З 2 20 км н/о +19.9 +13.8 68 +23 +23 комфорт 1012.0 936.0
10 17.06 З 4 20 км н/о +18.5 +15.2 81 +19 +19 1012.9 936.4
11 17.06 З 4 20 км н/о +16.9 +14.7 87 +17 +17 1013.7 936.7
12 17.06 ЮЗ 4 20 км н/о +15.6 +13.3 86 +15 +15 1014.6 937.2 +23.9
13 17.06 ЮЗ 3 20 км н/о +15.2 +11.4 78 +14 +14 1015.1 937.5
14 17.06 ЮЗ 4 20 км н/о +14.7 +10.7 77 +14 +14 1015.4 937.6
15 17.06 ЮЗ 3 20 км н/о +14.1 +10.5 79 +13 +13 1015.1 937.2
16 17.06 ЮЗ 4 20 км н/о +14.8 +10.4 75 +14 +14 1014.7 937.0
18 17.06 З 4 20 км н/о +14.4 +10.2 76 +13 +13 1014.0 936.3
19 17.06 З 4 20 км н/о +14.1 +10.3 78 +13 +13 1014.1 936.3
20 17.06 З 3 20 км н/о +14.5 +9.7 73 +14 +14 1014.2 936.5
21 17.06 З 3 20 км н/о +15.2 +10.8 75 +15 +15 1014.1 936.6
22 17.06 ЮЗ 2 20 км н/о +16.0 +12.2 78 +16 +16 1013.8 936.5

 

Местоположение метеостанции Ундзэн (Япония): широта 32.73 долгота 130.26 высота над уровнем моря 679 м.

В архиве по умолчанию представлена погода на Ундзэне за последнюю неделю. Архивные данные за месяц целиком и за предыдущие месяцы, начиная с января 2011 года, Вы можете получить, выбрав интересующий диапазон дат из раскрывающегося списка и нажав кнопку "Ввод!".


*Определитесь, кто Вы:
робот инопланетянин человек

Внимание! Время в таблицах - всемирное. Для получения местного времени необходимо прибавить поправку, которая равна 9 ч.

Смотрите также архив погоды в соседних городах и на ближайших метеорологических станциях:

Погода в Нагасаки (Япония) (37 км)
Погода в Кумамото (Япония) (41 км)
Погода в Саге (Япония) (60 км)
Погода в Сасебо (Япония) (68 км)
Погода в Хитоёси (Япония) (73 км)
Погода на Асо (Япония) (77 км)
Погода в Акуне (Япония) (78 км)
Погода в Хите (Япония) (91 км)
Погода в Фукуоке (Япония) (95 км)
Погода в Хирадо (Япония) (97 км)

Пояснения к столбцам:

Ветер - указаны скорость ветра в м/с - средняя за 10 мин, порывы в срок и между сроками (в фигурных скобках) и направление, откуда дует ветер: С - северный, СВ - северо-восточный, В - восточный, ЮВ - юго-восточный, Ю - южный, ЮЗ - юго-западный, З - западный, СЗ - северо-западный.
Видимость - горизонтальная дальность видимости в метрах или километрах. При видимости от 1 до 10 км при отсутствии осадков обычно наблюдается дымка, при ухудшении видимости до 1 км и менее - туман. В сухую погоду видимость может ухудшаться дымом, пылью или мглою.
Явления - указаны атмосферные явления, наблюдавшиеся в срок или в последний час перед сроком; фигурными скобками обозначены явления, наблюдавшиеся между сроками (за 1-3 часа до срока); квадратными скобками обозначены град или гололедные отложения с указанием их диаметра в мм.
Облачность - указаны через наклонную черту общая и нижняя облачность в баллах и высота нижней границы облаков в метрах; квадратными скобками обозначены формы облаков: Ci - перистые, Cs - перисто-слоистые, Cc - перисто-кучевые, Ac - высококучевые, As - высокослоистые, Sc - слоисто-кучевые, Ns - слоисто-дождевые, Cu - кучевые, Cb - кучево-дождевые. Подробнее классификацию облаков см. в Атласе облаков (PDF).
T - Температура воздуха - температура, измеренная на высоте 2 м над землей.
Td - Температура точки росы - температура, при понижении до которой содержащийся в воздухе водяной пар достигнет насыщения.
f - Относительная влажность воздуха - влажноcть воздуха, измеренная на высоте 2 м над землей.
Te - Эффективная температура - температура, которую ощущает одетый по сезону человек в тени. Характеристика душности погоды. При расчете учитывается влияние влажности воздуха и скорости ветра на теплоощущения человека.
Tes - Эффективная температура на солнце - температура, которую ощущает человек, с поправкой на солнечный нагрев. Характеристика знойности погоды. Зависит от высоты солнца над горизонтом, облачности и скорости ветра. Ночью, в пасмурную погоду, а также при ветре 12 м/с и более поправка равна нулю.
P - Атмосферное давление - приведенное к уровню моря атмосферное давление.
Po - Атмосферное давление - измеренное на уровне метеостанции атмосферное давление.
Tmin - Минимальная температура - минимум температуры воздуха на высоте 2 м над землей.
Tmax - Максимальная температура - максимум температуры воздуха на высоте 2 м над землей.
R - Количество осадков - Количество выпавших осадков за период времени, мм. При наведении курсора мыши на число - период времени, за который выпало указанное количество осадков.
R24 - Количество осадков - Количество выпавших осадков за 24 часа, мм.
S - Снежный покров - Высота снежного покрова, см. При наведении курсора мыши на число - состояние снежного покрова и степень покрытия местности в баллах.